Location: Grasslands National Park East Block
(49.0708°N, 106.5295°W)
Time: 07:27:42
(UTC-06:00)

Daily predictions for brighter satellites

Satellite Brightness Start Highest point End
(mag) Time Altitude Azimuth Time Altitude Azimuth Time Altitude Azimuth
METEOR-M 4.3 19:16:31 10° SE 19:21:41 51° ENE 19:26:51 10° N
Cosmos 1378 3.6 19:18:02 10° NNW 19:21:46 68° W 19:25:29 10° S
Cosmos 1758 3.9 19:18:07 10° SSE 19:21:53 37° E 19:25:42 10° NNE
Cosmos 1408 Rocket 3.5 19:20:21 10° N 19:24:44 75° E 19:29:03 10° SSE
CZ-4B DEB 4.4 19:23:08 10° ESE 19:25:25 18° ENE 19:27:42 10° NNE
SKYMED 2 3.6 19:21:22 10° NNE 19:25:45 84° ESE 19:30:05 10° SSW
Cosmos 1500 Rocket 4.4 19:21:53 10° N 19:25:49 30° ENE 19:29:43 10° SE
ATLAS 3B R/B 4.0 19:23:50 10° WSW 19:30:57 42° NNW 19:37:47 10° NE
TELKOM 3 4.5 19:27:51 10° W 19:30:59 39° SSW 19:33:14 10° SE
Cosmos 1464 Rocket 4.0 19:25:40 10° S 19:31:51 72° E 19:38:00 10° NNE
Cosmos 2034 Rocket 4.1 19:26:02 10° SSE 19:32:08 56° E 19:38:20 10° NNE
SL-16 R/B 2.4 19:26:39 10° SSW 19:32:22 82° WNW 19:38:06 10° NNE
Cosmos 1766 3.5 19:29:56 10° SSW 19:33:55 79° W 19:37:57 10° N
Meteor 1-21 Rocket 4.2 19:30:01 10° N 19:35:36 69° ENE 19:41:06 10° SSE
Helios 1A 3.2 19:35:19 10° SE 19:39:24 51° ENE 19:43:31 10° N
Aureole 2 Rocket 3.8 19:35:12 10° SW 19:39:28 55° WNW 19:43:35 10° NNE
FENGYUN 3A 4.1 19:35:25 10° SE 19:40:24 40° ENE 19:45:26 10° N
Spot 1 4.1 19:36:06 10° SSE 19:40:40 70° ENE 19:45:00 10° N
Meteor 1-28 Rocket 3.1 19:37:20 10° NNE 19:41:03 59° E 19:44:43 10° S
Meteor 1-29 4.0 19:38:30 10° NE 19:41:28 25° E 19:44:26 10° SSE
Cosmos 2219 Rocket 4.3 19:38:26 10° WSW 19:43:12 27° NW 19:48:01 10° NNE
CZ-2D R/B 4.2 19:41:51 10° SE 19:45:11 28° ENE 19:48:33 10° N
CZ-4C R/B 3.4 19:42:05 10° WSW 19:47:25 43° NNW 19:53:31 10° NE
ASTEX 1 3.9 19:50:33 10° NNE 19:55:08 37° E 19:59:39 10° SSE
NOSS 3-2 (A) 3.7 19:49:02 10° SW 19:55:14 77° NW 20:02:07 10° NE
H-2A R/B 3.4 19:52:22 13° SE 19:55:25 35° ENE 19:58:57 10° N
Cosmos 1743 Rocket 3.5 19:51:08 10° N 19:55:37 77° E 20:00:00 10° SSE
USA 186 3.1 19:58:53 15° NE 19:58:53 15° NE 19:59:50 10° NNE
Cosmos 1943 Rocket 2.9 19:54:07 10° NNW 19:59:19 36° NE 20:02:43 19° ESE
Cosmos 1805 3.2 19:55:29 10° S 19:59:25 88° WNW 20:03:24 10° N
Resurs 1-3 3.5 19:56:24 10° SSE 20:00:47 74° ENE 20:05:11 10° N
Helios 1B rocket 2.4 20:00:08 10° NNE 20:04:13 58° ESE 20:08:16 10° S
ALOS 2.3 20:00:16 10° SSE 20:04:51 60° ENE 20:09:28 10° N
Cosmos 2369 Rocket 2.1 20:01:40 10° NNW 20:07:21 78° ENE 20:12:52 11° SSE
Resurs 01 Rocket 1.8 20:04:39 10° S 20:09:05 74° WSW 20:13:34 10° NNW
SL-8 R/B 4.2 20:05:33 10° SW 20:10:02 41° SSE 20:12:18 25° E
ISS -2.4 20:07:08 10° SSW 20:10:03 31° SE 20:10:28 29° SE
Cosmos 1943 3.5 20:07:38 10° S 20:12:52 41° ESE 20:18:06 10° NE
Cosmos 1953 2.8 20:09:34 10° SSW 20:13:31 61° WNW 20:17:28 10° N
COSMO-SKYMED 1 4.4 20:09:45 10° N 20:13:41 34° WNW 20:17:35 10° SW
Cosmos 839 Rocket 4.3 20:06:14 10° NW 20:14:22 86° NE 20:20:01 15° SE
ERBS 2.5 20:13:18 10° NW 20:16:47 60° NNE 20:17:57 37° E
Cosmos 482 Debris 4.0 20:14:46 10° WNW 20:16:59 46° N 20:17:46 35° ENE
Gbstr 26 Del rocket 4.1 20:13:17 10° SSW 20:17:23 33° SE 20:19:03 27° ESE
Cosmos 1733 3.3 20:13:44 10° S 20:17:29 49° E 20:21:14 10° NNE
Cosmos 1331 Rocket 4.2 20:12:20 10° NNW 20:17:33 51° ENE 20:20:32 24° SE
Cosmos 2263 4.2 20:13:30 10° NNW 20:19:19 72° ENE 20:23:30 19° SE
Cosmos 1603 3.7 20:14:24 10° SSW 20:20:10 87° WNW 20:25:59 10° NNE
CENTAUR R/B 2.8 20:14:47 10° S 20:20:36 47° ESE 20:27:09 10° NE
Cosmos 1674 2.9 20:17:18 10° NNW 20:21:12 74° W 20:25:04 10° S
Cosmos 1470 2.6 20:21:07 10° S 20:24:58 73° E 20:28:52 10° NNE
Cosmos 2058 3.2 20:23:17 10° N 20:27:14 43° ENE 20:28:02 38° ESE
GP-B 3.2 20:23:18 10° N 20:27:40 52° E 20:30:26 21° SSE
Abrixas 3.2 20:25:19 10° SW 20:27:53 39° S 20:27:53 39° S
Nadezhda 4 Rocket 4.4 20:24:12 10° NNW 20:30:25 64° W 20:36:31 10° S
Cosmos 1302 Rocket 4.5 20:26:16 10° NNW 20:31:12 41° ENE 20:32:41 33° E
ATLAS CENTAUR R/B 4.3 20:28:46 10° SW 20:35:14 87° NNW 20:58:01 10° ENE
NOSS 3-2 (C) 4.1 20:29:37 10° WSW 20:35:47 59° NW 20:42:39 10° NE
Cosmos 2151 2.8 20:31:46 10° N 20:36:00 78° ENE 20:38:14 27° SSE
Cosmos 2279 Rocket 4.3 20:32:29 20° SSE 20:36:19 41° E 20:42:03 10° NNE
Cosmos 1805 Rocket 3.8 20:33:32 10° N 20:37:49 45° ENE 20:38:18 43° E
H-2A R/B 3.7 20:40:19 21° NE 20:40:19 21° NE 20:43:07 10° N
Cosmos-2242 4.5 20:35:49 10° SW 20:39:57 40° WNW 20:44:08 10° N
Cosmos 1092 Rocket 4.2 20:34:20 10° NNW 20:40:32 72° W 20:46:39 10° S
Cosmos 1048 Rocket 4.1 20:35:43 10° SSW 20:41:00 80° WNW 20:46:16 10° NNE
Cosmos 2221 3.2 20:46:32 38° NE 20:46:32 38° NE 20:49:39 10° NNE
ATLAS 5 CENTAUR R/B 2.9 20:40:55 10° WSW 20:45:42 47° NW 20:50:57 10° NE
Envisat 3.3 20:45:50 41° E 20:46:35 44° ENE 20:51:24 10° N
Cosmos 1269 Rocket 4.5 20:41:33 10° SW 20:46:47 63° WNW 20:52:03 10° NNE
Cosmos 1633 Rocket 3.9 20:45:29 10° N 20:48:43 33° NE 20:48:43 33° NE
Cosmos 1655 Rocket 3.9 20:44:58 10° N 20:51:14 76° E 20:55:08 24° SSE
Cosmos 2026 Rocket 3.8 20:45:21 10° N 20:51:29 83° E 20:55:57 20° SSE
Cosmos 158 Rocket 3.7 20:47:25 10° SSW 20:52:18 82° ESE 20:57:13 10° NNE
Cosmos 1174 3.6 20:48:04 10° SSW 20:52:20 71° SE 20:52:20 71° SE
Cosmos 1626 4.3 20:49:57 10° NNE 20:51:01 16° NNE 20:51:01 16° NNE
Meteor 2-1 Rocket 4.4 20:50:45 28° SSE 20:53:34 52° E 20:59:18 10° NNE
Cosmos 2142 Rocket 4.4 20:47:56 10° S 20:54:19 83° E 21:00:45 10° N
Meteor 1-16 Rocket 3.9 20:50:18 10° S 20:55:33 69° E 21:00:53 10° NNE
SJ-11-01 4.2 20:58:33 60° SE 20:59:14 70° ENE 21:03:56 10° N
USA 215 3.2 20:56:44 27° ENE 21:00:27 62° SE 21:06:55 10° SW
Cosmos 1634 Rocket 4.0 20:55:00 10° S 21:01:14 84° W 21:07:29 10° N
Cosmos 1656 Rocket 3.8 20:56:18 10° NNW 21:01:35 48° NE 21:02:07 47° ENE
Cosmos 1437 Rocket 4.4 21:03:52 25° NNE 21:03:52 25° NNE 21:05:36 10° NNE
Meteor 1-11 4.3 20:58:22 10° NNW 21:04:12 79° W 21:07:35 26° S
YAOGAN 11 4.0 21:08:45 71° NE 21:08:45 71° NE 21:12:47 10° NNW
ARGOS 4.3 21:10:03 27° NE 21:10:03 27° NE 21:13:53 10° N
H-2A R/B 4.0 21:10:39 15° NE 21:10:39 15° NE 21:12:36 10° NNE
Meteor 2-20 4.3 21:06:18 10° N 21:12:30 78° E 21:14:18 48° SSE
Meteor 2-20 Rocket 4.4 21:07:01 10° N 21:13:11 64° ENE 21:14:10 56° ESE
ERS-1 Rocket 2.8 21:15:51 72° SSE 21:16:24 86° ENE 21:21:28 10° NNW
Cosmos 1666 Rocket 3.7 21:12:40 10° N 21:16:32 65° NNE 21:16:32 65° NNE
SL-14 R/B 3.9 21:16:08 10° NNW 21:20:06 54° W 21:20:16 53° WSW
Cosmos 1939 Rocket 3.9 21:32:05 42° NNW 21:32:05 42° NNW 21:34:49 10° NNW
Cosmos 1980 Rocket 4.3 21:34:28 10° N 21:37:11 13° NNE 21:37:42 13° NE
CZ-4C R/B 4.4 21:32:52 10° WNW 21:37:39 23° N 21:42:49 10° NE
Cosmos 1943 Rocket 3.0 21:37:51 10° NW 21:43:12 45° WSW 21:44:16 40° SW
ISS 0.0 21:43:06 10° W 21:43:09 10° W 21:43:09 10° W
Sich 1 4.2 21:44:24 10° NNW 21:47:35 42° NW 21:47:35 42° NW
SPOT 5 4.1 21:51:18 32° NNW 21:51:18 32° NNW 21:53:41 10° NNW
MetOp-B 4.5 21:50:24 58° N 21:50:24 58° N 21:54:44 10° NNW
Cosmos 2369 Rocket 4.5 21:46:51 10° WNW 21:50:43 19° W 21:54:36 10° SW
Cosmos 2251 Rocket 4.0 21:45:46 10° SW 21:50:55 57° WNW 21:56:07 10° NNE
Cosmos 1943 4.4 21:51:41 10° WSW 21:56:57 40° NW 22:02:14 10° NNE
Lacrosse 4 Rocket 4.2 21:57:08 10° N 21:58:07 12° NNE 21:58:07 12° NNE
CENTAUR R/B 3.3 22:05:04 10° WSW 22:11:16 51° NW 22:18:19 10° NE
H-2A R/B 4.0 22:17:28 28° NW 22:17:28 28° NW 22:19:47 10° NNW
Cosmos 2285 Rocket 4.5 22:15:20 10° NNW 22:20:16 54° N 22:20:16 54° N
ATLAS 5 CENTAUR R/B 4.3 22:27:50 10° WNW 22:31:44 21° NNW 22:34:06 16° NNE
Terra 4.2 22:41:36 18° N 22:41:36 18° N 22:42:50 10° N
Cosmos 1697 Rocket 4.4 22:38:07 10° NNW 22:40:53 25° N 22:40:53 25° N
USA 215 3.7 22:44:08 58° NW 22:44:08 58° NW 22:49:55 10° W
H-2A R/B 4.0 22:51:18 24° NNW 22:51:18 24° NNW 22:53:21 10° NNW
ATLAS 3B R/B 4.1 23:10:17 10° NW 23:16:17 31° NNE 23:16:17 31° NNE
Cosmos 1980 Rocket 4.3 23:17:19 10° NNW 23:19:27 22° N 23:19:27 22° N
CZ-4C R/B 4.2 23:22:50 10° NW 23:27:58 28° NNE 23:27:58 28° NNE
